| time (UTC) | temp C | wind direction | speed KPH | gust KPH | rain 1hr cm | rain 24hr cm | rain mn cm | humidity % | barometer mb |
| 20260510143656 | 11 | 301 | 8.0 | 11.3 | 0.00 | 0.00 | 0.00 | 34 | 1015.8 |
| 20260510143153 | 10 | 304 | 1.6 | 9.7 | 0.00 | 0.00 | 0.00 | 33 | 1015.8 |
| 20260510142650 | 11 | 21 | 1.6 | 6.4 | 0.00 | 0.00 | 0.00 | 37 | 1015.8 |
| 20260510142146 | 10 | 296 | 3.2 | 4.8 | 0.00 | 0.00 | 0.00 | 36 | 1015.4 |
| 20260510141643 | 11 | 326 | 3.2 | 6.4 | 0.00 | 0.00 | 0.00 | 32 | 1015.4 |
| 20260510141142 | 10 | 284 | 6.4 | 12.9 | 0.00 | 0.00 | 0.00 | 36 | 1015.4 |
| 20260510140637 | 10 | 30 | 4.8 | 6.4 | 0.00 | 0.00 | 0.00 | 31 | 1015.4 |
| 20260510140137 | 10 | 266 | 0.0 | 4.8 | 0.00 | 0.00 | 0.00 | 34 | 1015.4 |
| 20260510135632 | 10 | 342 | 1.6 | 11.3 | 0.00 | 0.00 | 0.00 | 39 | 1015.4 |
| 20260510135129 | 10 | 21 | 6.4 | 9.7 | 0.00 | 0.00 | 0.00 | 37 | 1015.0 |
| 20260510134626 | 10 | 289 | 3.2 | 9.7 | 0.00 | 0.00 | 0.00 | 37 | 1015.0 |
| 20260510134123 | 10 | 304 | 0.0 | 6.4 | 0.00 | 0.00 | 0.00 | 40 | 1015.0 |
| 20260510133619 | 10 | 310 | 6.4 | 12.9 | 0.00 | 0.00 | 0.00 | 38 | 1015.0 |
| 20260510133114 | 10 | 317 | 0.0 | 9.7 | 0.00 | 0.00 | 0.00 | 37 | 1015.0 |
| 20260510132611 | 10 | 53 | 3.2 | 4.8 | 0.00 | 0.00 | 0.00 | 39 | 1015.0 |
| 20260510132109 | 10 | 318 | 1.6 | 6.4 | 0.00 | 0.00 | 0.00 | 42 | 1015.0 |
| 20260510131606 | 10 | 295 | 0.0 | 3.2 | 0.00 | 0.00 | 0.00 | 45 | 1014.7 |
| 20260510131103 | 10 | 310 | 6.4 | 9.7 | 0.00 | 0.00 | 0.00 | 44 | 1014.7 |
| 20260510130559 | 9 | 328 | 3.2 | 4.8 | 0.00 | 0.00 | 0.00 | 46 | 1014.7 |
| 20260510130058 | 9 | 5 | 0.0 | 4.8 | 0.00 | 0.00 | 0.00 | 45 | 1014.7 |
| 20260510125553 | 9 | 282 | 0.0 | 3.2 | 0.00 | 0.00 | 0.00 | 47 | 1014.7 |
| 20260510125050 | 9 | 285 | 4.8 | 6.4 | 0.00 | 0.00 | 0.00 | 49 | 1014.7 |
| 20260510124546 | 8 | 310 | 0.0 | 3.2 | 0.00 | 0.00 | 0.00 | 54 | 1014.7 |
| 20260510124043 | 8 | 332 | 1.6 | 6.4 | 0.00 | 0.00 | 0.00 | 50 | 1014.7 |
| 20260510123539 | 8 | 294 | 0.0 | 6.4 | 0.00 | 0.00 | 0.00 | 52 | 1014.3 |
| 20260510123035 | 8 | 0 | 4.8 | 11.3 | 0.00 | 0.00 | 0.00 | 55 | 1014.3 |
| 20260510122531 | 8 | 1 | 3.2 | 9.7 | 0.00 | 0.00 | 0.00 | 58 | 1014.3 |
| 20260510122027 | 8 | 293 | 0.0 | 4.8 | 0.00 | 0.00 | 0.00 | 61 | 1014.3 |
| 20260510121524 | 7 | 289 | 0.0 | 3.2 | 0.00 | 0.00 | 0.00 | 63 | 1014.3 |
| 20260510121022 | 7 | 357 | 3.2 | 9.7 | 0.00 | 0.00 | 0.00 | 61 | 1014.3 |
| 20260510120519 | 7 | 341 | 1.6 | 1.6 | 0.00 | 0.00 | 0.00 | 64 | 1014.3 |
| 20260510120015 | 7 | 286 | 3.2 | 3.2 | 0.00 | 0.00 | 0.00 | 65 | 1014.3 |
| 20260510115512 | 7 | 315 | 0.0 | 3.2 | 0.00 | 0.00 | 0.00 | 66 | 1014.3 |
| 20260510115008 | 7 | 293 | 0.0 | 1.6 | 0.00 | 0.00 | 0.00 | 70 | 1014.0 |
| 20260510114505 | 6 | 304 | 0.0 | 4.8 | 0.00 | 0.00 | 0.00 | 77 | 1014.0 |
| 20260510114000 | 6 | 299 | 0.0 | 0.0 | 0.00 | 0.00 | 0.00 | 80 | 1014.0 |
| 20260510113455 | 5 | 295 | 0.0 | 0.0 | 0.00 | 0.00 | 0.00 | 82 | 1014.0 |
| 20260510112953 | 5 | 280 | 0.0 | 0.0 | 0.00 | 0.00 | 0.00 | 84 | 1014.0 |
| 20260510112450 | 4 | 279 | 0.0 | 0.0 | 0.00 | 0.00 | 0.00 | 84 | 1013.7 |
| 20260510111946 | 3 | 280 | 0.0 | 0.0 | 0.00 | 0.00 | 0.00 | 84 | 1013.7 |
| 20260510111443 | 3 | 279 | 0.0 | 0.0 | 0.00 | 0.00 | 0.00 | 84 | 1013.7 |
| 20260510110939 | 2 | 279 | 0.0 | 0.0 | 0.00 | 0.00 | 0.00 | 85 | 1013.7 |
| 20260510110435 | 2 | 279 | 0.0 | 0.0 | 0.00 | 0.00 | 0.00 | 85 | 1013.7 |
| 20260510105931 | 2 | 279 | 0.0 | 0.0 | 0.00 | 0.00 | 0.00 | 85 | 1013.7 |
| 20260510105426 | 2 | 279 | 0.0 | 0.0 | 0.00 | 0.00 | 0.00 | 85 | 1013.3 |
| 20260510104922 | 2 | 279 | 0.0 | 0.0 | 0.00 | 0.00 | 0.00 | 85 | 1013.3 |
| 20260510104419 | 2 | 280 | 0.0 | 0.0 | 0.00 | 0.00 | 0.00 | 86 | 1013.0 |
| 20260510103915 | 1 | 281 | 0.0 | 0.0 | 0.00 | 0.00 | 0.00 | 85 | 1013.3 |
| 20260510103413 | 1 | 282 | 0.0 | 0.0 | 0.00 | 0.00 | 0.00 | 85 | 1013.3 |
| 20260510102908 | 1 | 282 | 0.0 | 0.0 | 0.00 | 0.00 | 0.00 | 85 | 1013.3 |
| 20260510102404 | 1 | 282 | 0.0 | 0.0 | 0.00 | 0.00 | 0.00 | 85 | 1013.3 |
| 20260510101901 | 1 | 282 | 0.0 | 0.0 | 0.00 | 0.00 | 0.00 | 85 | 1013.0 |
| 20260510101359 | 1 | 282 | 0.0 | 0.0 | 0.00 | 0.00 | 0.00 | 85 | 1013.0 |
| 20260510100856 | 1 | 281 | 0.0 | 0.0 | 0.00 | 0.00 | 0.00 | 85 | 1012.6 |
| 20260510100353 | 1 | 307 | 0.0 | 0.0 | 0.00 | 0.00 | 0.00 | 85 | 1012.6 |
| 20260510095850 | 1 | 308 | 0.0 | 0.0 | 0.00 | 0.00 | 0.00 | 85 | 1013.0 |
| 20260510095344 | 1 | 307 | 0.0 | 0.0 | 0.00 | 0.00 | 0.00 | 84 | 1012.6 |
| 20260510094839 | 1 | 307 | 0.0 | 0.0 | 0.00 | 0.00 | 0.00 | 84 | 1012.6 |
| 20260510094334 | 1 | 307 | 0.0 | 0.0 | 0.00 | 0.00 | 0.00 | 84 | 1012.3 |
| 20260510093830 | 1 | 307 | 0.0 | 0.0 | 0.00 | 0.00 | 0.00 | 84 | 1012.3 |
| 20260510093327 | 1 | 309 | 0.0 | 0.0 | 0.00 | 0.00 | 0.00 | 84 | 1012.3 |
| 20260510092823 | 1 | 310 | 0.0 | 0.0 | 0.00 | 0.00 | 0.00 | 84 | 1012.3 |
| 20260510092319 | 1 | 310 | 0.0 | 0.0 | 0.00 | 0.00 | 0.00 | 83 | 1012.0 |
| 20260510091815 | 1 | 310 | 0.0 | 0.0 | 0.00 | 0.00 | 0.00 | 83 | 1012.0 |
| 20260510091312 | 1 | 310 | 0.0 | 0.0 | 0.00 | 0.00 | 0.00 | 83 | 1012.0 |
| 20260510090809 | 1 | 310 | 0.0 | 0.0 | 0.00 | 0.00 | 0.00 | 83 | 1012.0 |
| 20260510090306 | 1 | 310 | 0.0 | 0.0 | 0.00 | 0.00 | 0.00 | 83 | 1012.0 |
| 20260510085801 | 1 | 310 | 0.0 | 0.0 | 0.00 | 0.00 | 0.00 | 82 | 1012.0 |
| 20260510085255 | 1 | 310 | 0.0 | 0.0 | 0.00 | 0.00 | 0.00 | 82 | 1011.6 |
| 20260510084751 | 1 | 310 | 0.0 | 0.0 | 0.00 | 0.00 | 0.00 | 82 | 1011.3 |
| 20260510084249 | 2 | 310 | 0.0 | 0.0 | 0.00 | 0.00 | 0.00 | 81 | 1011.0 |
| 20260510083745 | 2 | 310 | 0.0 | 0.0 | 0.00 | 0.00 | 0.00 | 81 | 1011.3 |
| 20260510083242 | 2 | 310 | 0.0 | 0.0 | 0.00 | 0.00 | 0.00 | 81 | 1011.0 |
| 20260510082738 | 2 | 310 | 0.0 | 0.0 | 0.00 | 0.00 | 0.00 | 80 | 1011.0 |
| 20260510082234 | 2 | 310 | 0.0 | 0.0 | 0.00 | 0.00 | 0.00 | 80 | 1011.0 |
| 20260510081734 | 2 | 310 | 0.0 | 0.0 | 0.00 | 0.00 | 0.00 | 80 | 1011.0 |
| 20260510081230 | 2 | 310 | 0.0 | 0.0 | 0.00 | 0.00 | 0.00 | 79 | 1011.0 |
| 20260510080725 | 2 | 310 | 0.0 | 0.0 | 0.00 | 0.00 | 0.00 | 79 | 1011.0 |
| 20260510080221 | 3 | 310 | 0.0 | 0.0 | 0.00 | 0.00 | 0.00 | 78 | 1010.6 |
| 20260510075718 | 3 | 310 | 0.0 | 0.0 | 0.00 | 0.00 | 0.00 | 78 | 1010.6 |
| 20260510075216 | 3 | 313 | 0.0 | 1.6 | 0.00 | 0.00 | 0.00 | 78 | 1010.2 |
| 20260510074713 | 3 | 324 | 0.0 | 1.6 | 0.00 | 0.00 | 0.00 | 78 | 1010.6 |
| 20260510074209 | 3 | 313 | 0.0 | 0.0 | 0.00 | 0.00 | 0.00 | 76 | 1010.6 |
| 20260510073706 | 3 | 312 | 0.0 | 0.0 | 0.00 | 0.00 | 0.00 | 74 | 1010.6 |
| 20260510073201 | 3 | 312 | 0.0 | 0.0 | 0.00 | 0.00 | 0.00 | 73 | 1010.6 |
| 20260510072657 | 4 | 312 | 0.0 | 0.0 | 0.00 | 0.00 | 0.00 | 72 | 1010.6 |
| 20260510072154 | 5 | 312 | 0.0 | 0.0 | 0.00 | 0.00 | 0.00 | 71 | 1010.6 |
| 20260510071650 | 5 | 312 | 0.0 | 0.0 | 0.00 | 0.00 | 0.00 | 71 | 1010.6 |
| 20260510071148 | 5 | 338 | 0.0 | 1.6 | 0.00 | 0.00 | 0.00 | 71 | 1010.2 |
| 20260510070645 | 5 | 27 | 1.6 | 3.2 | 0.00 | 0.00 | 0.00 | 70 | 1010.2 |
| 20260510070143 | 5 | 344 | 0.0 | 1.6 | 0.00 | 0.00 | 0.00 | 69 | 1010.2 |
| 20260510065643 | 6 | 26 | 0.0 | 1.6 | 0.00 | 0.00 | 0.00 | 68 | 1010.2 |
| 20260510065139 | 6 | 23 | 1.6 | 3.2 | 0.00 | 0.00 | 0.00 | 68 | 1009.8 |
| 20260510064636 | 6 | 340 | 1.6 | 1.6 | 0.00 | 0.00 | 0.00 | 68 | 1009.8 |
| 20260510064132 | 6 | 5 | 3.2 | 3.2 | 0.00 | 0.00 | 0.00 | 67 | 1009.8 |
| 20260510063629 | 6 | 25 | 0.0 | 3.2 | 0.00 | 0.00 | 0.00 | 67 | 1009.8 |
| 20260510063126 | 6 | 319 | 0.0 | 4.8 | 0.00 | 0.00 | 0.00 | 67 | 1009.8 |
| 20260510062622 | 6 | 63 | 3.2 | 6.4 | 0.00 | 0.00 | 0.00 | 67 | 1009.8 |
| 20260510062118 | 6 | 66 | 3.2 | 6.4 | 0.00 | 0.00 | 0.00 | 67 | 1009.8 |
| 20260510061614 | 6 | 41 | 3.2 | 4.8 | 0.00 | 0.00 | 0.00 | 67 | 1009.8 |
| 20260510061112 | 6 | 107 | 1.6 | 3.2 | 0.00 | 0.00 | 0.00 | 66 | 1009.8 |
| 20260510060607 | 6 | 48 | 1.6 | 1.6 | 0.00 | 0.00 | 0.00 | 66 | 1009.5 |
| 20260510060104 | 6 | 59 | 1.6 | 4.8 | 0.00 | 0.00 | 0.00 | 66 | 1009.5 |
| 20260510055600 | 6 | 64 | 6.4 | 12.9 | 0.00 | 0.00 | 0.00 | 62 | 1009.5 |
| 20260510055059 | 7 | 44 | 3.2 | 6.4 | 0.00 | 0.00 | 0.00 | 63 | 1009.5 |
| 20260510054549 | 7 | 80 | 8.0 | 11.3 | 0.00 | 0.00 | 0.00 | 63 | 1009.5 |
| 20260510054043 | 7 | 59 | 1.6 | 3.2 | 0.00 | 0.00 | 0.00 | 62 | 1009.2 |
| 20260510053538 | 7 | 27 | 4.8 | 11.3 | 0.00 | 0.00 | 0.00 | 62 | 1009.2 |
| 20260510053035 | 7 | 39 | 0.0 | 4.8 | 0.00 | 0.00 | 0.00 | 62 | 1009.2 |
| 20260510052531 | 7 | 19 | 3.2 | 11.3 | 0.00 | 0.00 | 0.00 | 60 | 1009.2 |
| 20260510052027 | 7 | 37 | 6.4 | 12.9 | 0.00 | 0.00 | 0.00 | 60 | 1009.2 |
| 20260510051523 | 8 | 66 | 6.4 | 11.3 | 0.00 | 0.00 | 0.00 | 58 | 1008.8 |
| 20260510051020 | 8 | 66 | 6.4 | 11.3 | 0.00 | 0.00 | 0.00 | 58 | 1008.8 |
| 20260510050517 | 8 | 42 | 6.4 | 12.9 | 0.00 | 0.00 | 0.00 | 58 | 1008.8 |
| 20260510050014 | 8 | 49 | 11.3 | 14.5 | 0.00 | 0.00 | 0.00 | 59 | 1008.8 |
| 20260510045511 | 8 | 25 | 1.6 | 4.8 | 0.00 | 0.00 | 0.00 | 61 | 1008.1 |
| 20260510045007 | 8 | 54 | 6.4 | 9.7 | 0.00 | 0.00 | 0.00 | 59 | 1008.1 |
| 20260510044504 | 9 | 352 | 1.6 | 4.8 | 0.00 | 0.00 | 0.00 | 59 | 1008.1 |
| 20260510044001 | 9 | 26 | 3.2 | 4.8 | 0.00 | 0.00 | 0.00 | 58 | 1008.1 |
| 20260510043456 | 9 | 43 | 6.4 | 12.9 | 0.00 | 0.00 | 0.00 | 57 | 1007.8 |
| 20260510042955 | 10 | 72 | 3.2 | 9.7 | 0.00 | 0.00 | 0.00 | 56 | 1008.1 |
| 20260510042451 | 11 | 6 | 0.0 | 1.6 | 0.00 | 0.00 | 0.00 | 49 | 1007.8 |
| 20260510041947 | 11 | 7 | 4.8 | 6.4 | 0.00 | 0.00 | 0.00 | 47 | 1007.5 |
| 20260510041444 | 11 | 315 | 0.0 | 1.6 | 0.00 | 0.00 | 0.00 | 48 | 1007.5 |
| 20260510040942 | 11 | 321 | 0.0 | 1.6 | 0.00 | 0.00 | 0.00 | 48 | 1007.5 |
| 20260510040438 | 11 | 351 | 1.6 | 3.2 | 0.00 | 0.00 | 0.00 | 47 | 1007.5 |
| 20260510035934 | 11 | 341 | 1.6 | 1.6 | 0.00 | 0.41 | 0.41 | 47 | 1007.5 |
| 20260510035430 | 11 | 337 | 1.6 | 6.4 | 0.00 | 0.41 | 0.41 | 47 | 1007.5 |
| 20260510034925 | 11 | 6 | 3.2 | 9.7 | 0.00 | 0.41 | 0.41 | 47 | 1007.1 |
| 20260510034424 | 11 | 327 | 4.8 | 9.7 | 0.00 | 0.41 | 0.41 | 46 | 1007.1 |
| 20260510033920 | 12 | 319 | 0.0 | 1.6 | 0.00 | 0.41 | 0.41 | 46 | 1007.1 |
| 20260510033416 | 12 | 349 | 4.8 | 6.4 | 0.00 | 0.41 | 0.41 | 44 | 1007.1 |
| 20260510032912 | 12 | 332 | 1.6 | 4.8 | 0.00 | 0.41 | 0.41 | 45 | 1007.1 |
| 20260510032409 | 12 | 35 | 3.2 | 6.4 | 0.00 | 0.41 | 0.41 | 47 | 1006.8 |
| 20260510031904 | 12 | 321 | 1.6 | 1.6 | 0.00 | 0.41 | 0.41 | 46 | 1007.1 |
| 20260510031140 | 12 | 39 | 0.0 | 6.4 | 0.00 | 0.41 | 0.41 | 46 | 1006.8 |
| 20260510030635 | 12 | 39 | 0.0 | 6.4 | 0.00 | 0.41 | 0.41 | 46 | 1006.8 |
| 20260510030133 | 12 | 338 | 8.0 | 12.9 | 0.00 | 0.41 | 0.41 | 42 | 1006.4 |
| 20260510025630 | 12 | 5 | 9.7 | 14.5 | 0.00 | 0.41 | 0.41 | 43 | 1006.4 |
| 20260510025127 | 12 | 318 | 3.2 | 9.7 | 0.00 | 0.41 | 0.41 | 42 | 1006.8 |
| 20260510024624 | 12 | 39 | 11.3 | 20.9 | 0.00 | 0.41 | 0.41 | 42 | 1006.4 |
| 20260510024120 | 13 | 324 | 4.8 | 17.7 | 0.00 | 0.41 | 0.41 | 43 | 1006.4 |
| 20260510023616 | 13 | 52 | 3.2 | 11.3 | 0.00 | 0.41 | 0.41 | 45 | 1006.4 |
| 20260510023114 | 13 | 37 | 4.8 | 24.1 | 0.00 | 0.41 | 0.41 | 45 | 1005.8 |
| 20260510022614 | 13 | 13 | 3.2 | 12.9 | 0.00 | 0.41 | 0.41 | 45 | 1005.8 |
| 20260510022108 | 13 | 354 | 3.2 | 11.3 | 0.00 | 0.41 | 0.41 | 45 | 1005.8 |
| 20260510021604 | 13 | 307 | 4.8 | 11.3 | 0.00 | 0.41 | 0.41 | 44 | 1005.8 |
| 20260510021102 | 13 | 352 | 1.6 | 6.4 | 0.00 | 0.41 | 0.41 | 45 | 1005.4 |
| 20260510020556 | 14 | 24 | 6.4 | 11.3 | 0.00 | 0.41 | 0.41 | 43 | 1005.4 |
| 20260510020052 | 14 | 293 | 4.8 | 22.5 | 0.00 | 0.41 | 0.41 | 42 | 1005.4 |
| 20260510015548 | 14 | 350 | 9.7 | 20.9 | 0.00 | 0.41 | 0.41 | 43 | 1005.1 |
| 20260510015044 | 14 | 5 | 6.4 | 11.3 | 0.00 | 0.41 | 0.41 | 43 | 1004.7 |
| 20260510014540 | 14 | 352 | 3.2 | 3.2 | 0.00 | 0.41 | 0.41 | 43 | 1004.7 |
| 20260510014038 | 15 | 4 | 3.2 | 11.3 | 0.00 | 0.41 | 0.41 | 43 | 1004.3 |
| 20260510013532 | 15 | 339 | 1.6 | 16.1 | 0.00 | 0.41 | 0.41 | 42 | 1004.3 |
| 20260510013028 | 15 | 305 | 1.6 | 3.2 | 0.00 | 0.41 | 0.41 | 50 | 1004.0 |
| 20260510012527 | 15 | 294 | 0.0 | 0.0 | 0.00 | 0.41 | 0.41 | 43 | 1003.6 |
| 20260510012024 | 15 | 304 | 0.0 | 0.0 | 0.00 | 0.41 | 0.41 | 41 | 1003.6 |
| 20260510011524 | 16 | 287 | 0.0 | 1.6 | 0.00 | 0.41 | 0.41 | 37 | 1003.3 |
| 20260510011020 | 16 | 297 | 0.0 | 4.8 | 0.00 | 0.41 | 0.41 | 37 | 1003.6 |
| 20260510010517 | 15 | 299 | 0.0 | 3.2 | 0.00 | 0.41 | 0.41 | 37 | 1003.6 |
| 20260510010014 | 15 | 285 | 0.0 | 1.6 | 0.00 | 0.41 | 0.41 | 39 | 1003.3 |
| 20260510005509 | 15 | 294 | 0.0 | 0.0 | 0.00 | 0.41 | 0.41 | 38 | 1003.3 |
| 20260510005008 | 15 | 298 | 0.0 | 0.0 | 0.00 | 0.41 | 0.41 | 37 | 1003.0 |
| 20260510004504 | 16 | 299 | 0.0 | 0.0 | 0.00 | 0.41 | 0.41 | 38 | 1003.0 |
| 20260510004003 | 16 | 309 | 0.0 | 1.6 | 0.00 | 0.41 | 0.41 | 38 | 1003.0 |
| 20260510003459 | 16 | 306 | 0.0 | 0.0 | 0.00 | 0.41 | 0.41 | 37 | 1003.0 |
| 20260510002954 | 16 | 269 | 0.0 | 3.2 | 0.00 | 0.41 | 0.41 | 35 | 1003.0 |
| 20260510002450 | 16 | 303 | 1.6 | 6.4 | 0.00 | 0.41 | 0.41 | 33 | 1003.0 |
| 20260510001947 | 16 | 310 | 1.6 | 6.4 | 0.00 | 0.41 | 0.41 | 34 | 1002.6 |
| 20260510001444 | 17 | 305 | 1.6 | 1.6 | 0.00 | 0.41 | 0.41 | 35 | 1002.6 |
| 20260510000942 | 17 | 306 | 1.6 | 3.2 | 0.00 | 0.41 | 0.41 | 34 | 1002.6 |
| 20260510000433 | 17 | 284 | 0.0 | 4.8 | 0.00 | 0.41 | 0.41 | 34 | 1002.6 |
| 20260509235929 | 17 | 305 | 1.6 | 4.8 | 0.00 | 0.41 | 0.41 | 34 | 1002.6 |
| 20260509235426 | 17 | 281 | 1.6 | 6.4 | 0.00 | 0.41 | 0.41 | 32 | 1002.3 |
| 20260509234922 | 17 | 293 | 1.6 | 6.4 | 0.00 | 0.41 | 0.41 | 32 | 1002.3 |
| 20260509234419 | 17 | 357 | 4.8 | 6.4 | 0.00 | 0.41 | 0.41 | 32 | 1002.3 |
| 20260509233918 | 18 | 352 | 1.6 | 11.3 | 0.00 | 0.41 | 0.41 | 34 | 1002.3 |
| 20260509233415 | 18 | 298 | 4.8 | 11.3 | 0.00 | 0.41 | 0.41 | 32 | 1002.3 |
| 20260509232911 | 19 | 340 | 1.6 | 9.7 | 0.00 | 0.41 | 0.41 | 31 | 1001.9 |
| 20260509232409 | 19 | 290 | 1.6 | 12.9 | 0.00 | 0.41 | 0.41 | 31 | 1001.9 |
| 20260509231904 | 19 | 312 | 4.8 | 20.9 | 0.00 | 0.41 | 0.41 | 32 | 1001.6 |
| 20260509231401 | 19 | 304 | 11.3 | 17.7 | 0.00 | 0.41 | 0.41 | 30 | 1001.6 |
| 20260509230859 | 19 | 281 | 14.5 | 24.1 | 0.00 | 0.41 | 0.41 | 30 | 1001.6 |
| 20260509230356 | 19 | 272 | 9.7 | 17.7 | 0.00 | 0.41 | 0.41 | 31 | 1001.6 |
| 20260509225851 | 18 | 223 | 6.4 | 20.9 | 0.00 | 0.41 | 0.41 | 32 | 1001.6 |
| 20260509225348 | 19 | 310 | 3.2 | 14.5 | 0.00 | 0.41 | 0.41 | 33 | 1001.3 |
| 20260509224844 | 18 | 296 | 8.0 | 12.9 | 0.00 | 0.41 | 0.41 | 32 | 1001.3 |
| 20260509224340 | 19 | 244 | 3.2 | 25.7 | 0.00 | 0.41 | 0.41 | 32 | 1001.3 |
| 20260509223837 | 20 | 307 | 6.4 | 20.9 | 0.00 | 0.41 | 0.41 | 31 | 1001.3 |
| 20260509223334 | 20 | 257 | 9.7 | 17.7 | 0.00 | 0.41 | 0.41 | 30 | 1000.9 |
| 20260509222831 | 19 | 312 | 12.9 | 24.1 | 0.00 | 0.41 | 0.41 | 30 | 1000.9 |
| 20260509222326 | 20 | 320 | 12.9 | 27.4 | 0.00 | 0.41 | 0.41 | 30 | 1000.9 |
| 20260509221822 | 20 | 294 | 14.5 | 25.7 | 0.00 | 0.41 | 0.41 | 29 | 1000.6 |
| 20260509221320 | 20 | 266 | 11.3 | 24.1 | 0.00 | 0.41 | 0.41 | 29 | 1000.6 |
| 20260509220819 | 20 | 275 | 14.5 | 24.1 | 0.00 | 0.41 | 0.41 | 31 | 1000.6 |
| 20260509220316 | 20 | 315 | 16.1 | 25.7 | 0.00 | 0.41 | 0.41 | 30 | 1000.3 |
| 20260509215811 | 20 | 236 | 17.7 | 24.1 | 0.00 | 0.41 | 0.41 | 29 | 1000.3 |
| 20260509215308 | 20 | 283 | 6.4 | 22.5 | 0.00 | 0.41 | 0.41 | 29 | 1000.3 |
| 20260509214805 | 20 | 280 | 6.4 | 17.7 | 0.00 | 0.41 | 0.41 | 31 | 999.9 |
| 20260509214302 | 20 | 284 | 16.1 | 25.7 | 0.00 | 0.41 | 0.41 | 30 | 999.9 |
| 20260509213759 | 20 | 303 | 12.9 | 22.5 | 0.00 | 0.41 | 0.41 | 31 | 999.9 |
| 20260509213255 | 20 | 279 | 12.9 | 33.8 | 0.00 | 0.41 | 0.41 | 32 | 999.9 |
| 20260509212752 | 20 | 314 | 22.5 | 33.8 | 0.00 | 0.41 | 0.41 | 30 | 999.9 |
| 20260509212250 | 20 | 216 | 14.5 | 17.7 | 0.00 | 0.41 | 0.41 | 30 | 999.6 |
| 20260509211745 | 20 | 273 | 9.7 | 12.9 | 0.00 | 0.41 | 0.41 | 32 | 999.9 |
| 20260509211242 | 20 | 248 | 11.3 | 29.0 | 0.00 | 0.41 | 0.41 | 32 | 1000.3 |
| 20260509210738 | 20 | 294 | 8.0 | 17.7 | 0.00 | 0.41 | 0.41 | 35 | 999.9 |
| 20260509210237 | 19 | 265 | 14.5 | 17.7 | 0.00 | 0.41 | 0.41 | 37 | 999.9 |
| 20260509205736 | 19 | 278 | 19.3 | 25.7 | 0.00 | 0.41 | 0.41 | 37 | 999.9 |
| 20260509205236 | 19 | 264 | 9.7 | 12.9 | 0.00 | 0.41 | 0.41 | 47 | 1000.3 |
| 20260509204732 | 18 | 288 | 6.4 | 9.7 | 0.00 | 0.41 | 0.41 | 51 | 1000.3 |
| 20260509204228 | 18 | 282 | 4.8 | 9.7 | 0.00 | 0.41 | 0.41 | 56 | 1000.3 |
| 20260509203724 | 18 | 288 | 9.7 | 12.9 | 0.00 | 0.41 | 0.41 | 58 | 1000.3 |
| 20260509203223 | 17 | 296 | 4.8 | 9.7 | 0.00 | 0.41 | 0.41 | 60 | 1000.6 |
| 20260509202718 | 17 | 222 | 3.2 | 6.4 | 0.00 | 0.41 | 0.41 | 61 | 1000.3 |
| 20260509202213 | 17 | 238 | 8.0 | 9.7 | 0.00 | 0.41 | 0.41 | 62 | 1000.3 |
| 20260509201708 | 16 | 240 | 4.8 | 9.7 | 0.13 | 0.41 | 0.41 | 65 | 1000.6 |
| 20260509201206 | 16 | 277 | 6.4 | 11.3 | 0.13 | 0.41 | 0.41 | 66 | 1000.3 |
| 20260509200702 | 15 | 286 | 3.2 | 9.7 | 0.00 | 0.38 | 0.38 | 68 | 1000.6 |
| 20260509200157 | 15 | 283 | 4.8 | 6.4 | 0.00 | 0.38 | 0.38 | 71 | 1000.9 |
| 20260509195654 | 14 | 250 | 3.2 | 9.7 | 0.00 | 0.38 | 0.38 | 74 | 1000.6 |
| 20260509195149 | 13 | 304 | 4.8 | 9.7 | 0.00 | 0.38 | 0.38 | 77 | 1000.9 |
| 20260509194648 | 12 | 288 | 3.2 | 6.4 | 0.00 | 0.38 | 0.38 | 76 | 1000.9 |
| 20260509194146 | 12 | 251 | 3.2 | 9.7 | 0.00 | 0.38 | 0.38 | 78 | 1000.9 |
| 20260509193641 | 12 | 204 | 4.8 | 9.7 | 0.00 | 0.38 | 0.38 | 80 | 1001.3 |
| 20260509193137 | 12 | 214 | 3.2 | 9.7 | 0.18 | 0.38 | 0.38 | 79 | 1001.3 |
| 20260509192634 | 12 | 230 | 1.6 | 4.8 | 0.48 | 0.38 | 0.38 | 77 | 1001.3 |
| 20260509192129 | 11 | 312 | 3.2 | 12.9 | 0.48 | 0.36 | 0.36 | 76 | 1001.3 |
| 20260509191629 | 12 | 289 | 3.2 | 16.1 | 0.61 | 0.30 | 0.30 | 75 | 1001.3 |
| 20260509191126 | 12 | 303 | 0.0 | 4.8 | 0.48 | 0.28 | 0.28 | 73 | 1001.3 |
| 20260509190622 | 13 | 295 | 1.6 | 4.8 | 0.48 | 0.20 | 0.20 | 69 | 1001.6 |
| 20260509190120 | 15 | 280 | 3.2 | 16.1 | 0.00 | 0.13 | 0.13 | 67 | 1001.3 |
| 20260509185617 | 15 | 218 | 6.4 | 11.3 | 0.00 | 0.13 | 0.13 | 72 | 999.9 |
| 20260509185113 | 15 | 247 | 8.0 | 14.5 | 0.00 | 0.13 | 0.13 | 73 | 1000.3 |
| 20260509184612 | 14 | 241 | 6.4 | 6.4 | 0.71 | 0.13 | 0.13 | 76 | 1000.3 |
| 20260509184108 | 15 | 229 | 6.4 | 24.1 | 0.61 | 0.13 | 0.13 | 72 | 1000.3 |
| 20260509183603 | 16 | 185 | 17.7 | 33.8 | 0.00 | 0.00 | 0.00 | 59 | 999.9 |
| 20260509183059 | 16 | 243 | 12.9 | 17.7 | 0.00 | 0.00 | 0.00 | 59 | 1000.3 |
| 20260509182556 | 17 | 195 | 17.7 | 25.7 | 0.00 | 0.00 | 0.00 | 58 | 999.9 |
| 20260509182053 | 17 | 223 | 8.0 | 20.9 | 0.00 | 0.00 | 0.00 | 59 | 999.6 |
| 20260509181551 | 17 | 253 | 12.9 | 27.4 | 0.00 | 0.00 | 0.00 | 58 | 999.9 |
| 20260509181048 | 17 | 212 | 8.0 | 17.7 | 0.00 | 0.00 | 0.00 | 59 | 999.9 |
| 20260509180543 | 17 | 161 | 14.5 | 29.0 | 0.00 | 0.00 | 0.00 | 59 | 999.9 |
| 20260509180042 | 18 | 241 | 19.3 | 27.4 | 0.00 | 0.00 | 0.00 | 57 | 999.9 |
| 20260509175537 | 17 | 200 | 6.4 | 22.5 | 0.00 | 0.00 | 0.00 | 59 | 999.9 |
| 20260509175034 | 17 | 223 | 6.4 | 16.1 | 0.00 | 0.00 | 0.00 | 59 | 999.9 |
| 20260509174530 | 17 | 212 | 9.7 | 14.5 | 0.00 | 0.00 | 0.00 | 59 | 999.9 |
| 20260509174026 | 18 | 229 | 8.0 | 25.7 | 0.00 | 0.00 | 0.00 | 59 | 999.9 |
| 20260509173520 | 17 | 294 | 4.8 | 17.7 | 0.00 | 0.00 | 0.00 | 60 | 1000.3 |
| 20260509173017 | 17 | 244 | 6.4 | 20.9 | 0.00 | 0.00 | 0.00 | 59 | 1000.3 |
| 20260509172514 | 17 | 276 | 4.8 | 17.7 | 0.00 | 0.00 | 0.00 | 61 | 1000.3 |
| 20260509172009 | 17 | 228 | 6.4 | 25.7 | 0.00 | 0.00 | 0.00 | 61 | 1000.3 |
| 20260509171506 | 17 | 201 | 9.7 | 29.0 | 0.00 | 0.00 | 0.00 | 63 | 1000.3 |
| 20260509171002 | 16 | 198 | 11.3 | 17.7 | 0.00 | 0.00 | 0.00 | 64 | 1000.6 |
| 20260509170458 | 16 | 147 | 4.8 | 12.9 | 0.00 | 0.00 | 0.00 | 64 | 1000.6 |
| 20260509165953 | 16 | 204 | 9.7 | 16.1 | 0.00 | 0.00 | 0.00 | 65 | 1000.6 |
| 20260509165453 | 16 | 244 | 4.8 | 12.9 | 0.00 | 0.00 | 0.00 | 66 | 1000.6 |
| 20260509164949 | 15 | 231 | 8.0 | 20.9 | 0.00 | 0.00 | 0.00 | 67 | 1000.6 |
| 20260509164444 | 15 | 176 | 12.9 | 16.1 | 0.00 | 0.00 | 0.00 | 67 | 1000.6 |
| 20260509163940 | 15 | 275 | 14.5 | 29.0 | 0.00 | 0.00 | 0.00 | 64 | 1001.3 |
| 20260509163438 | 16 | 231 | 14.5 | 17.7 | 0.00 | 0.00 | 0.00 | 64 | 1000.9 |
| 20260509162937 | 16 | 222 | 6.4 | 16.1 | 0.00 | 0.00 | 0.00 | 63 | 1000.9 |
| 20260509162436 | 16 | 227 | 8.0 | 20.9 | 0.00 | 0.00 | 0.00 | 65 | 1000.9 |
| 20260509161932 | 16 | 260 | 12.9 | 17.7 | 0.00 | 0.00 | 0.00 | 66 | 1000.9 |
| 20260509161428 | 16 | 220 | 9.7 | 24.1 | 0.00 | 0.00 | 0.00 | 66 | 1001.3 |
| 20260509160924 | 16 | 221 | 6.4 | 12.9 | 0.00 | 0.00 | 0.00 | 66 | 1001.3 |
| 20260509160420 | 15 | 230 | 8.0 | 14.5 | 0.00 | 0.00 | 0.00 | 67 | 1001.3 |
| 20260509155915 | 15 | 233 | 6.4 | 11.3 | 0.00 | 0.00 | 0.00 | 69 | 1001.3 |
| 20260509155412 | 15 | 248 | 9.7 | 20.9 | 0.00 | 0.00 | 0.00 | 70 | 1001.3 |
| 20260509154908 | 15 | 205 | 14.5 | 20.9 | 0.00 | 0.00 | 0.00 | 67 | 1001.3 |
| 20260509154405 | 16 | 176 | 6.4 | 9.7 | 0.00 | 0.00 | 0.00 | 70 | 1001.3 |
| 20260509153901 | 15 | 280 | 8.0 | 14.5 | 0.00 | 0.00 | 0.00 | 74 | 1001.6 |
| 20260509153359 | 13 | 215 | 3.2 | 16.1 | 0.00 | 0.00 | 0.00 | 76 | 1001.9 |
| 20260509152856 | 13 | 286 | 0.0 | 14.5 | 0.00 | 0.00 | 0.00 | 76 | 1001.9 |
| 20260509152352 | 13 | 188 | 3.2 | 11.3 | 0.00 | 0.00 | 0.00 | 76 | 1001.9 |
| 20260509151849 | 13 | 65 | 6.4 | 14.5 | 0.00 | 0.00 | 0.00 | 77 | 1001.9 |
| 20260509151344 | 13 | 196 | 6.4 | 11.3 | 0.00 | 0.00 | 0.00 | 79 | 1002.3 |
| 20260509150843 | 13 | 174 | 3.2 | 12.9 | 0.00 | 0.00 | 0.00 | 81 | 1001.9 |
| 20260509150341 | 12 | 180 | 4.8 | 6.4 | 0.00 | 0.00 | 0.00 | 82 | 1002.3 |
| 20260509145838 | 12 | 240 | 0.0 | 0.0 | 0.00 | 0.00 | 0.00 | 83 | 1003.0 |
| 20260509145332 | 11 | 180 | 3.2 | 3.2 | 0.00 | 0.00 | 0.00 | 82 | 1002.6 |
| 20260509144830 | 11 | 341 | 0.0 | 0.0 | 0.00 | 0.00 | 0.00 | 83 | 1003.3 |
| 20260509144326 | 11 | 312 | 0.0 | 3.2 | 0.00 | 0.00 | 0.00 | 83 | 1003.3 |